This demonstration page uses our WeatherBlox Daily Observations layout. Learn more.

Left ArrowRight Arrow

38.80484, -77.04692

Hourly Observations for September 23, 2020

Temp ( °F °C ) Dew Point ( °F °C ) Humidity (%) Winds ( mph kmh ) Pressure ( in mb ) Visibility ( mi km ) Precip ( " mm )
12:52 am 00:52 Mostly Cloudy 60 15.6 49 9.4 67 67 ESE 5 7 30.01 1016 10 16 N/A
1:52 am 01:52 Mostly Cloudy 59 15 46 7.8 62 62 N 5 7 30.01 1016 10 16 N/A
2:52 am 02:52 Mostly Cloudy 58 14.4 46 7.8 65 65 N N/A 30.01 1016 10 16 N/A
3:52 am 03:52 Mostly Cloudy 59 15 49 9.4 69 69 N N/A 30.01 1016 10 16 N/A
4:52 am 04:52 Mostly Cloudy 59 15 48 8.9 67 67 N N/A 30.01 1016 10 16 N/A
5:52 am 05:52 Mostly Cloudy 56 13.3 45 7.2 67 67 NNW 7 11 30.02 1017 10 16 N/A
6:52 am 06:52 Mostly Clear 56 13.3 46 7.8 70 70 N 7 11 30.03 1017 10 16 N/A
7:52 am 07:52 Sunny 59 15 47 8.3 64 64 N N/A 30.04 1017 10 16 N/A
8:52 am 08:52 Sunny 66 18.9 48 8.9 52 52 NNW 6 9 30.04 1017 10 16 N/A
9:52 am 09:52 Sunny 69 20.6 49 9.4 49 49 WNW 10 17 30.04 1017 10 16 N/A
10:52 am 10:52 Sunny 72 22.2 50 10 46 46 NNW 9 15 30.04 1017 10 16 N/A
11:52 am 11:52 Sunny 76 24.4 51 10.6 42 42 NNW 8 13 30.04 1017 10 16 N/A
12:52 pm 12:52 Sunny 78 25.6 52 11.1 40 40 NW 10 17 30.01 1016 10 16 N/A
1:52 pm 13:52 Mostly Sunny 80 26.7 52 11.1 38 38 WSW 5 7 29.98 1015 10 16 N/A
2:52 pm 14:52 Mostly Sunny 80 26.7 52 11.1 38 38 VRB 7 11 29.96 1014 10 16 N/A
3:52 pm 15:52 Mostly Sunny 80 26.7 52 11.1 38 38 WSW 7 11 29.94 1014 10 16 N/A
4:52 pm 16:52 Mostly Sunny 80 26.7 51 10.6 37 37 W 12 19 29.94 1014 10 16 N/A
5:52 pm 17:52 Partly Cloudy 78 25.6 52 11.1 40 40 WSW 9 15 29.94 1014 10 16 N/A
6:52 pm 18:52 Mostly Cloudy 74 23.3 53 11.7 48 48 SW 8 13 29.95 1014 10 16 N/A
7:52 pm 19:52 Mostly Cloudy 72 22.2 52 11.1 50 50 SSW 8 13 29.96 1015 10 16 N/A
8:52 pm 20:52 Mostly Cloudy 70 21.1 52 11.1 53 53 SSW 8 13 29.98 1015 10 16 N/A
9:52 pm 21:52 Mostly Cloudy 67 19.4 55 12.8 66 66 S 8 13 29.99 1016 10 16 N/A
10:52 pm 22:52 Mostly Cloudy 67 19.4 56 13.3 68 68 S 8 13 29.99 1016 10 16 N/A
11:52 pm 23:52 Mostly Cloudy 65 18.3 55 12.8 70 70 SSW 5 7 29.99 1016 10 16 N/A

Powered by AerisWeather